Location: Newark
(45.2621°N, 19.8603°E)
Time: 08:08:17
(UTC+00:00)

Envisat - Visible Passes

Search period start: 12 November 2019 00:00
Search period end: 22 November 2019 00:00
Orbit: 764 x 766 km, 98.1° (Epoch: 12 November)

Date Brightness Start Highest point End Pass type
(mag) Time Alt. Az. Time Alt. Az. Time Alt. Az.
12 Nov 3.0 16:37:12 10° SSE 16:42:17 90° WSW 16:47:24 10° NNW visible
12 Nov 6.2 18:20:20 10° WSW 18:22:01 12° W 18:23:43 10° WNW visible
13 Nov 5.4 04:44:28 10° NE 04:48:46 27° E 04:53:02 10° SSE visible
13 Nov 3.3 16:00:50 10° SE 16:05:37 43° ENE 16:10:26 10° N visible
13 Nov 5.2 17:40:40 10° SSW 17:44:49 25° W 17:49:00 10° NW visible
14 Nov 6.3 04:09:25 10° ENE 04:11:35 13° E 04:13:44 10° ESE visible
14 Nov 3.8 17:02:52 10° S 17:07:49 53° W 17:12:48 10° NNW visible
15 Nov 2.9 16:25:58 10° SSE 16:31:01 74° ENE 16:36:07 10° N visible
15 Nov 5.9 18:07:47 10° WSW 18:10:35 15° W 18:13:25 10° NW visible
16 Nov 5.8 04:33:30 10° NE 04:37:23 22° E 04:41:16 10° SE visible
16 Nov 3.6 15:49:50 10° SE 15:54:25 35° ENE 15:59:01 10° N visible
16 Nov 4.8 17:28:59 10° SSW 17:33:27 31° W 17:37:58 10° NNW visible
17 Nov 3.4 16:51:28 10° S 16:56:31 67° WSW 17:01:35 10° NNW visible
18 Nov 4.8 04:58:24 10° NNE 05:03:06 36° E 05:07:46 10° SSE visible
18 Nov 3.0 16:14:48 10° SSE 16:19:46 59° ENE 16:24:47 10° N visible
18 Nov 5.6 17:55:41 10° SW 17:59:12 19° W 18:02:43 10° NW visible
19 Nov 6.0 04:22:39 10° NE 04:26:00 17° E 04:29:20 10° SE visible
19 Nov 3.8 15:38:55 10° ESE 15:43:14 29° ENE 15:47:34 10° N visible
19 Nov 4.4 17:17:23 10° SSW 17:22:06 39° W 17:26:52 10° NNW visible
20 Nov 3.0 16:40:09 10° SSE 16:45:14 83° WSW 16:50:21 10° NNW visible
20 Nov 6.2 18:24:11 10° W 18:25:02 10° W 18:25:54 10° WNW visible
21 Nov 5.2 04:47:19 10° NE 04:51:45 29° E 04:56:09 10° SSE visible
21 Nov 3.2 16:03:42 10° SE 16:08:33 47° ENE 16:13:25 10° N visible
21 Nov 5.3 17:43:48 10° SW 17:47:48 23° W 17:51:49 10° NW visible
